Weather in Uppsala

Sweden     59°51′40″N   17°38′16″E
temp.,
°C
wind,
m/s
gust,
m/s
humid.,
%
clouds,
%
prec.,
mm/h
press.,
hPa
HPBL,
m
17 april, sat
sat1723:00+3n3107647 0.0 1031253
02:00+1n258824 0.0 1031112
05:00+1nne378810 0.0 1031148
08:00+5nne386532 0.0 1031279
11:00+11ne474010 0.0 1031885
14:00+12ne56358 0.0 10311095
17:00+12ne45438 0.0 10301033
20:00+7ne376278 0.0 1031218
18 april, sun
sun1823:00+4nne287623 0.0 1031187
02:00+3nne258532 0.0 1031105
05:00+3nne258037 0.0 103087
08:00+7ne366244 0.0 1031250
11:00+13ene45415 0.0 1030973
14:00+14ene45375 0.0 10301269
17:00+13e44447 0.0 10291068
20:00+8e25625 0.0 1030111
19 april, mon
mon1923:00+5ene27755 0.0 1031172
02:00+4ne27751 0.0 1030137
05:00+3ne28790 0.0 1030143
08:00+8ene37600 0.0 1030325
11:00+13e35420 0.0 10291143
14:00+15e34375 0.0 10281697
17:00+14e44395 0.0 10271539
20:00+8e25630 0.0 1026112
20 april, tue
tue2023:00+5e25780 0.0 1026111
02:00+4ene23830 0.0 102555
05:00+3ne22851 0.0 102335
08:00+7ene25655 0.0 1022287
11:00+12e34485 0.0 10201060
14:00+14e33369 0.0 10181825
17:00+12e444141 0.0 10161313
20:00+8e266223 0.0 1016179
21 april, wed
wed2123:00+4e24805 0.0 101593
02:00+3e11735 0.0 101314
05:00+2nne11744 0.0 101110
08:00+6n12575 0.0 1010249
11:00+11nnw23425 0.0 10081351
14:00+13nnw243417 0.0 10052137
17:00+14nnw243399 0.0 10032180
20:00+9ese365544 0.0 1004307